Weather in Kazanskoye

Russia / Tyumen Oblast     57°47′30″N   69°39′02″E
temp.,
°C
wind,
m/s
gust,
m/s
humid.,
%
clouds,
%
prec.,
mm/h
press.,
hPa
HPBL,
m
12 may, wed
wed1223:00+14wnw254397 0.0 102484
02:00+12wnw264953 0.0 1022100
05:00+13nw395485 0.0 1023358
08:00+14nnw5854100 0.0 1023740
11:00+16nnw5835100 0.0 10241322
14:00+18nnw5727100 0.0 10241836
17:00+18nnw5726100 0.0 10241814
20:00+13nnw244199 0.0 102482
13 may, thu
thu1323:00+13wnw2245100 0.0 102454
02:00+13wnw2455100 0.0 1023129
05:00+11sw3775100 0.4 1021188
08:00+17nw5115793 0.0 1020659
11:00+20nnw4752100 0.0 10201235
14:00+23nw7124498 0.1 10192372
17:00+22nnw5936100 0.1 10212048
20:00+17n49438 0.0 1024364
14 may, fri
fri1423:00+11ne286366 0.0 1026180
02:00+8e11685 0.0 102711
05:00+8sse11665 0.0 102822
08:00+14ssw24445 0.0 1028485
11:00+21sw45339 0.0 1026992
14:00+25wsw583182 0.0 10231967
17:00+27wsw5103272 0.0 10213000
20:00+21sw375045 0.0 1020117
15 may, sat
sat1523:00+17ese016092 0.0 101917
02:00+16wsw396236 0.0 1018164
05:00+16wsw3106498 0.0 1018211
08:00+22w484699 0.0 1018379
11:00+27w61134100 0.0 10172225
14:00+27wnw61031100 0.0 10172561
17:00+28wnw5122820 0.0 10163426
20:00+22wsw22467 0.0 101530
16 may, sun
sun1623:00+17w137441 1.3 101769
02:00+15wsw248598 0.0 101780
05:00+15wsw2885100 0.0 1016180
08:00+21wsw3661100 0.0 1016345
11:00+27w583795 0.0 10151525
14:00+30wnw5102797 0.0 10142364
17:00+31w592263 0.0 10132681
20:00+24wsw373814 0.0 1013101